Regional Weather Roundup
Issued by NWS

Home | Current Version | Previous Version | Graphics & Text | Print | Product List | Glossary On
Versions: 1 2 3 4 5 6 7 8 9 10 11 12 13 14 15 16 17 18 19 20 21 22 23 24 25 26 27 28 29 30 31 32 33 34 35 36 37 38 39 40 41 42 43 44 45 46 47 48 49 50
000
ASUS45 KBOI 302010
RWRID
WEATHER ROUNDUP FOR IDAHO
NATIONAL WEATHER SERVICE BOISE ID
200 PM MDT WED JUL 30 2014

NOTE: "FAIR" INDICATES FEW OR NO CLOUDS BELOW 12000 FEET
WITH NO SIGNIFICANT WEATHER AND/OR OBSTRUCTIONS TO VISIBILITY

IDZ012-014-302100-
SOUTHWEST IDAHO


CITY           SKY/WX    TMP DP  RH WIND       PRES   REMARKS
BOISE          PTSUNNY   89  47  23 NW5       30.11F
CALDWELL       PTSUNNY   86  55  35 NW7       30.13F
MOUNTAIN HOME  MOSUNNY   89  49  25 E3        30.12F
$$

IDZ016-017-302100-
SOUTHCENTRAL IDAHO


CITY           SKY/WX    TMP DP  RH WIND       PRES   REMARKS
BURLEY         SUNNY     82  53  36 VRB5      30.20F
JEROME         MOSUNNY   85  55  35 VRB7      30.20F
TWIN FALLS     SUNNY     85  49  28 NE7       30.20F
$$

IDZ019>023-302100-
SOUTHEAST IDAHO


CITY           SKY/WX    TMP DP  RH WIND       PRES   REMARKS
IDAHO FALLS    PTSUNNY   78  49  35 CALM      30.25F
POCATELLO      MOSUNNY   81  50  33 VRB3      30.22F
REXBURG        PTSUNNY   78  47  33 NW5       30.26F
$$

IDZ006-010-011-018-031-032-302100-
CENTRAL IDAHO MOUNTAINS


CITY           SKY/WX    TMP DP  RH WIND       PRES   REMARKS
MCCALL         PTSUNNY   82  41  23 W10       30.23F
HAILEY         MOSUNNY   79  54  41 SE17      30.28F
STANLEY          N/A     84  38  19 N8        30.31F
SALMON         PTSUNNY   82  52  34 CALM      30.11F
CHALLIS        PTSUNNY   84  42  22 VRB3      30.22F
$$

IDZ002-004-006-007-026-302100-
NORTHERN IDAHO


CITY           SKY/WX    TMP DP  RH WIND       PRES   REMARKS
LEWISTON       PTSUNNY   94  40  15 SW6       30.02S HX  90
LOWELL           N/A     99  49  18 CALM      30.00F HX  96
COEUR D`ALENE  MOSUNNY   91  54  27 CALM      30.04S
MULLAN PASS    SUNNY     78  38  23 NW8       30.32S
$$


USA.gov is the U.S. government's official web portal to all federal, state and local government web resources and services.